Location: Asheville, NC
(35.6000°N, 82.5500°W)
Time: 05:45:56
(UTC-04:00)

Vanguard 3 - Pass Details

Date: 07 December 2017
Orbit: 508 x 3264 km, 33.3° (Epoch: 20 April)

Event Time Altitude Azimuth Distance (km) Brightness Sun altitude
Rises 18:57:34 0° 275° (W) 3,161 11.5 -19.9°
Reaches altitude 10° 18:59:36 10° 268° (W) 2,442 10.7 -20.3°
Maximum altitude 19:05:09 48° 195° (SSW) 1,480 8.6 -21.4°
Enters shadow 19:13:31 13° 127° (SE) 3,762 10.2 -23.1°
Drops below altitude 10° 19:14:44 10° 126° (SE) 4,163 - -23.3°
Sets 19:19:17 0° 121° (ESE) 5,639 - -24.2°
